Wind_Speed
23 26 20 18 22 19 19 17 20 21 17 12 8 5 6 5 6 3 9 14 24 33 28 24 24 23 21 21 21 20 19 18 18 17 17 20 16 20 20 20 19 22 19 19 24 24 24 23 23
19 22 26 28 21 11 18 12 16 22 26 23 13 14 12 6 12 7 15 31 31 28 24 22 23 20 22 19 20 20 18 17 17 17 17 19 15 21 20 19 20 23 25 21 23 22 21 23 24
17 21 26 21 7 11 12 10 14 18 24 25 20 18 17 15 25 19 27 32 29 24 20 19 19 20 19 19 17 17 14 16 15 16 15 18 15 21 21 17 19 22 26 25 23 22 20 22 21
12 20 22 7 13 11 14 14 15 15 18 21 21 22 22 24 25 22 23 25 23 17 22 19 19 16 16 17 16 15 12 15 15 17 15 16 18 20 18 19 17 21 26 26 24 21 20 20 21
24 30 9 10 13 14 11 12 12 12 17 15 18 20 23 21 22 21 19 21 17 13 17 18 17 16 15 15 14 13 12 14 16 17 15 17 18 23 21 19 19 20 24 25 24 20 20 20 19
25 26 6 8 13 13 10 13 5 10 13 12 13 12 13 15 14 15 19 17 15 15 13 15 16 15 14 13 12 11 11 12 14 16 13 15 16 16 19 18 18 18 20 20 23 21 19 18 20
28 7 11 12 10 11 10 9 8 7 8 10 8 9 10 10 11 12 16 15 15 10 11 11 14 13 12 12 9 10 10 10 10 12 12 12 12 14 12 16 17 16 17 17 17 19 19 18 17
28 15 4 11 12 8 8 8 9 8 8 8 8 6 10 10 10 10 12 19 12 8 9 12 11 11 10 9 9 8 8 8 9 9 10 11 11 14 15 14 13 15 16 16 15 18 19 18 18
17 4 6 14 13 13 8 7 8 8 8 8 8 8 7 9 10 9 9 12 15 16 5 8 9 8 10 6 5 5 4 5 6 8 8 10 9 9 10 13 13 15 13 14 13 15 17 19 17
17 15 14 13 14 15 12 10 7 7 9 7 7 6 7 5 8 7 7 8 8 8 5 6 7 5 6 4 3 2 1 2 4 6 8 7 5 4 10 10 10 10 11 12 12 12 13 15 17
9 12 16 18 15 12 13 10 11 7 10 5 5 6 5 5 4 5 6 6 7 8 7 5 4 4 5 4 3 4 3 3 4 5 6 3 5 17 14 7 8 8 8 8 9 10 8 10 12
5 10 15 17 17 17 12 16 15 13 9 7 4 5 5 4 4 4 6 7 6 5 4 5 5 4 3 5 5 5 4 3 3 3 4 1 5 9 10 8 6 8 7 6 5 6 6 6 5
9 10 13 16 16 14 16 14 11 11 9 7 6 5 4 4 2 2 3 5 8 6 4 3 4 5 1 2 4 4 4 4 2 0 2 1 1 5 6 7 9 9 8 6 5 5 3 4 4
9 13 15 16 16 17 14 13 12 11 11 10 7 7 6 3 2 2 2 2 2 4 4 3 2 0 2 3 5 6 7 6 5 2 0 1 0 1 7 7 7 6 7 5 4 3 3 3 1
4 7 10 16 19 14 12 19 18 13 11 10 9 10 8 6 5 3 1 1 1 1 2 2 3 3 3 5 6 8 8 8 4 4 2 2 2 3 5 6 5 6 5 6 7 6 6 8 1
4 9 14 16 18 14 16 20 13 15 11 9 8 9 9 7 6 5 5 5 4 3 4 5 6 7 7 8 7 6 3 6 3 6 3 4 1 2 3 5 6 7 9 9 7 5 4 6 7
2 14 8 12 13 12 13 14 12 14 14 12 9 7 7 7 5 4 4 4 6 7 6 4 5 5 5 6 7 5 4 4 3 2 4 4 1 2 3 3 7 6 8 10 8 4 1 2 2
9 18 5 9 11 10 9 11 12 10 14 15 13 10 7 5 6 5 3 3 4 5 6 5 4 3 5 5 6 4 3 4 6 4 5 4 1 3 2 4 8 9 12 14 12 6 2 6 2
13 12 4 14 11 10 2 5 7 7 9 11 14 13 12 9 6 5 6 5 5 5 6 5 5 2 4 5 5 4 5 10 9 14 10 6 2 4 3 8 8 12 10 17 13 7 6 8 7
11 2 15 6 11 10 13 15 14 7 11 10 14 12 12 13 9 7 6 6 7 7 7 5 5 5 4 3 2 3 6 9 8 6 8 5 4 5 6 8 9 9 16 15 12 6 8 8 8
12 9 18 3 12 7 4 10 17 8 6 10 14 12 8 11 8 6 5 4 4 8 7 6 5 5 5 4 3 2 4 8 8 9 6 2 3 5 6 7 11 13 16 14 11 5 10 9 6
11 13 9 16 18 5 12 11 24 26 18 10 11 12 8 10 9 6 4 6 5 5 6 6 5 4 4 3 4 4 3 6 5 4 4 5 5 6 6 7 11 16 16 13 7 3 9 7 4
16 12 11 15 12 13 10 19 29 22 21 21 3 9 9 9 10 7 4 4 6 6 4 5 5 6 7 6 4 4 6 6 7 6 6 7 6 6 4 7 11 15 14 8 6 8 6 3 3
22 22 16 18 13 16 12 16 30 31 20 13 8 7 8 10 10 9 5 4 6 7 6 5 7 7 8 8 8 8 7 7 8 6 7 7 4 6 5 6 10 13 11 8 6 5 4 3 4
25 17 16 15 15 15 9 20 14 27 23 14 16 16 12 9 8 8 12 10 11 12 12 8 7 7 8 9 8 6 7 7 6 8 9 8 6 7 5 4 7 11 8 5 4 3 2 3 2
22 18 18 13 9 10 19 28 28 17 19 20 7 11 11 9 8 12 12 8 11 14 13 12 7 6 6 6 7 8 7 6 6 6 8 10 5 10 7 2 4 8 8 6 3 3 3 3 2
22 22 19 19 18 16 23 22 27 6 5 11 10 18 11 8 5 8 11 9 8 15 13 16 15 9 5 5 8 9 10 11 10 6 7 9 6 12 12 5 6 9 9 9 7 5 4 4 5
29 16 12 17 17 17 16 11 11 7 4 12 8 13 13 3 4 8 9 11 10 12 11 13 10 11 9 6 7 8 13 16 13 13 9 10 10 9 9 7 9 9 9 9 8 8 7 7 7
28 29 22 14 14 12 12 13 12 18 5 7 19 12 14 10 6 8 11 20 21 16 15 12 11 13 13 13 14 16 22 25 22 16 11 9 10 10 10 11 11 10 10 11 10 11 11 11 12
22 16 23 15 17 17 16 16 21 18 15 18 16 16 16 16 22 6 16 21 24 20 19 13 14 14 13 13 16 22 18 7 11 13 8 8 9 10 11 13 13 13 14 14 15 15 15 16 16
Wind_Direction
68 71 80 65 61 67 100 60 61 64 68 67 80 52 66 91 135 162 133 151 150 136 131 138 131 123 118 111 112 113 111 104 97 90 83 76 67 68 66 58 57 61 61 56 53 53 52 61 58
74 80 60 74 60 81 54 67 65 65 67 68 75 72 80 87 121 136 154 145 126 122 136 137 126 128 116 119 117 115 110 102 96 88 76 77 64 65 64 55 53 53 48 56 58 53 50 58 58
75 71 64 30 48 61 82 83 70 77 74 76 78 79 76 92 106 130 147 121 112 112 120 122 122 120 127 122 119 115 112 99 85 79 73 72 70 64 65 55 51 50 49 58 60 56 57 59 59
83 77 70 59 73 71 67 74 71 72 81 80 86 94 86 94 97 93 91 96 104 119 111 116 122 140 129 125 119 113 106 94 84 78 74 68 58 61 68 61 58 54 55 56 58 58 56 56 52
69 71 37 70 72 81 56 64 83 75 86 91 93 99 104 103 101 94 100 101 109 119 126 131 133 135 129 127 121 109 98 89 80 77 74 65 59 72 74 64 60 59 58 56 58 65 63 64 56
70 65 28 62 68 71 69 83 79 74 75 83 91 109 111 111 113 112 116 108 99 113 110 129 134 131 132 136 122 107 99 89 82 86 82 70 66 70 64 58 55 57 59 54 62 67 65 70 61
75 66 46 54 72 67 65 78 86 85 80 81 79 90 93 93 111 122 125 122 110 120 125 135 132 136 135 152 133 116 103 89 81 89 83 77 62 54 54 62 49 45 53 57 56 58 69 71 68
91 32 65 55 61 74 73 75 81 77 82 89 89 77 96 92 95 99 108 109 117 127 149 133 125 127 134 132 126 114 98 88 76 80 86 70 61 50 52 69 51 49 47 61 40 55 64 78 71
77 109 95 66 72 79 78 74 70 77 81 68 76 91 84 103 93 97 105 129 129 112 146 127 119 132 134 132 135 114 101 79 72 69 72 69 55 50 62 52 50 47 45 56 47 43 59 63 82
60 41 79 73 72 69 75 74 76 83 72 69 78 78 90 102 120 120 106 110 130 142 170 119 122 130 106 125 117 104 44 42 53 70 77 64 73 62 82 54 51 48 45 41 47 44 42 57 68
23 47 55 57 67 81 75 77 72 48 69 58 92 88 89 78 81 102 109 117 126 140 137 120 108 116 97 71 37 4 342 342 44 61 71 84 355 62 53 53 23 35 39 40 24 39 40 47 59
27 53 54 55 53 69 77 71 57 50 45 46 48 101 96 87 94 114 124 128 137 127 119 107 104 57 89 81 50 26 347 340 48 71 98 102 334 14 33 21 13 8 10 9 3 13 17 29 46
60 38 47 55 57 52 63 69 78 77 64 68 61 80 111 106 100 108 109 111 120 123 117 128 143 168 169 61 38 12 343 325 344 295 110 101 59 359 14 351 354 4 350 5 344 349 336 341 14
64 36 35 35 36 38 41 58 83 80 73 67 78 73 68 88 121 117 105 99 107 120 130 141 151 200 313 332 347 342 332 337 285 255 217 350 65 350 338 2 358 15 11 3 357 316 329 322 334
110 52 65 28 27 36 61 59 55 63 72 72 75 77 73 63 66 61 95 215 234 207 216 218 206 230 286 302 319 333 332 332 276 237 232 183 97 50 13 6 352 2 15 24 17 357 344 307 349
213 163 24 19 13 22 51 58 44 44 45 66 73 78 79 71 55 45 40 24 354 317 274 268 268 273 279 288 297 304 10 310 290 225 146 173 187 30 6 348 350 354 5 3 6 13 353 335 324
189 58 44 353 14 26 24 33 37 41 42 45 54 67 70 67 57 38 28 18 7 353 339 287 271 284 289 288 289 298 288 294 244 215 236 289 243 308 338 330 344 354 3 358 346 341 336 299 252
218 117 257 327 11 356 43 31 27 38 51 51 47 43 46 56 66 45 37 24 21 359 344 345 319 288 281 294 314 307 271 230 208 190 193 216 293 317 343 296 324 347 351 344 327 306 249 222 357
20 40 222 288 345 329 146 24 38 30 23 30 31 31 30 27 22 27 37 42 16 359 358 360 9 347 292 290 297 280 238 229 225 164 207 183 290 300 333 322 336 354 339 339 329 298 220 223 220
328 240 234 306 346 334 17 335 315 347 2 34 27 22 21 24 10 17 14 16 26 0 353 360 4 358 4 358 321 293 254 242 236 262 216 198 251 300 342 318 332 2 347 331 328 290 213 213 210
238 235 276 88 295 330 289 269 281 308 0 358 10 13 17 15 12 352 1 359 15 21 4 356 15 7 13 18 343 320 251 246 236 244 235 237 253 290 291 321 334 344 343 343 323 288 194 196 204
237 268 276 267 279 279 286 260 291 307 298 340 346 9 9 4 11 4 356 351 4 31 32 5 20 22 16 6 333 319 284 270 257 256 236 232 246 280 310 333 340 344 351 344 326 156 167 175 197
209 230 241 254 277 278 271 272 255 283 285 289 270 4 4 3 358 8 10 340 335 353 8 9 6 26 31 17 332 308 291 275 265 251 229 217 245 286 311 338 347 354 3 17 85 126 147 152 111
216 206 250 272 270 268 276 269 275 269 299 317 97 40 10 7 348 352 10 357 349 343 332 352 357 356 3 11 6 352 330 297 286 268 231 235 262 214 295 341 359 360 25 51 75 102 96 75 53
219 230 250 254 271 278 320 270 300 303 330 310 346 351 342 356 3 351 344 12 16 12 10 360 350 347 347 344 338 342 340 344 304 279 270 262 248 256 293 313 352 6 21 43 35 43 61 89 50
236 221 232 244 246 289 271 288 294 287 295 312 12 286 312 338 14 2 349 340 7 9 8 10 347 345 326 315 304 297 293 309 325 313 270 263 267 252 231 195 337 328 359 9 1 352 344 336 341
217 228 224 236 245 271 282 289 300 317 71 345 294 220 279 324 342 2 346 329 5 356 345 3 355 325 304 307 312 301 284 273 274 281 286 273 246 261 281 275 327 320 339 350 357 344 334 323 312
221 202 253 248 242 250 277 314 317 331 148 261 264 225 281 269 304 330 357 349 327 345 343 348 344 337 321 324 330 306 279 258 257 243 252 270 265 247 268 283 292 307 319 327 334 329 333 324 311
223 215 213 217 242 249 258 264 296 217 215 229 276 287 270 292 267 298 336 333 327 353 350 346 336 341 339 331 334 320 300 254 249 238 231 257 272 260 254 266 282 292 299 305 310 309 311 302 290
204 234 229 228 219 227 255 273 290 290 199 202 255 261 224 285 260 341 337 328 318 335 334 324 322 322 336 335 357 5 23 127 176 204 227 256 264 252 255 263 273 277 286 294 302 306 305 303 299
Height
5901 5898 5896 5898 5899 5899 5893 5896 5895 5894 5893 5891 5891 5892 5893 5893 5895 5898 5897 5898 5899 5903 5907 5910 5911 5912 5913 5913 5912 5914 5914 5915 5915 5916 5914 5911 5913 5910 5911 5911 5910 5910 5907 5906 5903 5903 5904 5902 5901
5905 5904 5900 5893 5901 5902 5898 5902 5900 5897 5897 5895 5896 5894 5895 5897 5896 5897 5898 5899 5902 5905 5910 5913 5913 5915 5915 5917 5916 5917 5917 5918 5917 5917 5916 5914 5916 5913 5913 5913 5913 5911 5909 5908 5907 5905 5905 5905 5904
5909 5908 5904 5901 5906 5905 5905 5905 5903 5903 5901 5901 5901 5900 5900 5899 5897 5902 5901 5902 5906 5908 5913 5914 5916 5918 5919 5919 5921 5920 5923 5920 5921 5920 5920 5918 5918 5916 5916 5917 5915 5914 5912 5910 5910 5908 5908 5908 5908
5911 5908 5908 5913 5909 5909 5908 5908 5907 5906 5906 5906 5905 5905 5905 5907 5906 5907 5907 5907 5911 5915 5914 5919 5919 5922 5922 5922 5923 5924 5926 5923 5923 5922 5923 5923 5922 5919 5918 5919 5920 5918 5916 5915 5913 5912 5911 5910 5911
5910 5905 5916 5913 5911 5912 5912 5911 5913 5910 5910 5910 5910 5911 5911 5911 5913 5914 5914 5914 5918 5921 5920 5921 5922 5924 5924 5925 5925 5926 5928 5927 5925 5925 5926 5925 5925 5923 5921 5922 5922 5922 5919 5919 5916 5916 5915 5915 5914
5910 5914 5919 5915 5913 5914 5914 5916 5915 5914 5913 5914 5915 5915 5916 5916 5916 5917 5919 5920 5920 5922 5924 5924 5925 5925 5928 5929 5929 5929 5930 5929 5928 5927 5929 5929 5927 5927 5926 5925 5926 5925 5923 5923 5921 5920 5919 5918 5917
5912 5916 5921 5917 5917 5917 5917 5917 5918 5918 5917 5917 5919 5919 5920 5919 5920 5920 5922 5923 5923 5926 5927 5928 5927 5929 5929 5932 5931 5930 5931 5931 5931 5930 5930 5931 5930 5930 5930 5928 5929 5928 5927 5926 5925 5925 5923 5922 5921
5920 5925 5925 5920 5919 5919 5919 5920 5919 5919 5919 5920 5921 5922 5922 5923 5922 5923 5924 5925 5928 5929 5931 5931 5930 5931 5933 5934 5932 5932 5933 5934 5934 5934 5932 5933 5933 5932 5933 5931 5930 5930 5929 5929 5928 5928 5927 5926 5924
5924 5929 5926 5923 5922 5921 5921 5922 5922 5922 5921 5921 5922 5923 5925 5924 5924 5925 5926 5928 5929 5930 5932 5932 5931 5934 5934 5935 5935 5934 5935 5935 5937 5936 5936 5935 5933 5933 5935 5933 5932 5931 5931 5931 5931 5930 5930 5928 5927
5929 5931 5928 5925 5924 5924 5923 5923 5924 5924 5923 5923 5924 5925 5926 5927 5927 5927 5928 5929 5930 5931 5933 5932 5932 5936 5934 5937 5937 5937 5937 5938 5938 5939 5938 5936 5931 5932 5932 5934 5933 5934 5934 5933 5934 5933 5932 5930 5930
5934 5935 5932 5929 5927 5926 5926 5925 5924 5925 5924 5926 5926 5926 5926 5927 5928 5928 5928 5929 5931 5933 5934 5934 5935 5936 5935 5938 5939 5939 5939 5939 5939 5940 5940 5936 5932 5916 5933 5935 5936 5936 5936 5936 5935 5935 5935 5932 5932
5938 5937 5936 5933 5931 5929 5929 5927 5928 5927 5927 5927 5928 5928 5928 5928 5929 5930 5931 5932 5933 5933 5934 5934 5936 5936 5938 5939 5940 5939 5940 5940 5940 5941 5940 5939 5935 5935 5934 5936 5937 5938 5938 5938 5937 5936 5936 5935 5932
5938 5939 5938 5935 5933 5932 5930 5930 5931 5930 5930 5929 5929 5929 5929 5929 5930 5930 5931 5932 5933 5934 5935 5936 5937 5938 5940 5940 5940 5940 5940 5941 5941 5941 5940 5943 5941 5939 5939 5939 5939 5938 5939 5939 5939 5938 5938 5934 5934
5939 5938 5937 5936 5936 5937 5936 5935 5933 5933 5932 5931 5931 5930 5930 5930 5931 5932 5932 5932 5933 5934 5936 5937 5938 5940 5941 5941 5940 5941 5941 5941 5941 5941 5939 5942 5942 5941 5942 5942 5940 5940 5939 5940 5940 5939 5937 5935 5934
5940 5938 5936 5937 5939 5939 5941 5937 5935 5935 5934 5934 5933 5932 5932 5932 5932 5933 5933 5934 5934 5935 5936 5937 5938 5940 5940 5940 5941 5941 5942 5942 5940 5938 5938 5940 5939 5939 5941 5941 5941 5940 5941 5940 5939 5938 5936 5934 5932
5938 5928 5929 5938 5939 5938 5941 5937 5940 5937 5936 5936 5935 5934 5933 5933 5933 5934 5934 5934 5934 5935 5935 5935 5936 5938 5939 5939 5940 5942 5941 5941 5938 5939 5941 5941 5939 5939 5938 5942 5941 5940 5938 5939 5939 5939 5937 5936 5936
5940 5936 5941 5943 5941 5941 5939 5941 5941 5939 5938 5938 5937 5936 5935 5935 5934 5935 5935 5935 5935 5935 5935 5935 5936 5937 5938 5938 5940 5941 5942 5940 5939 5942 5935 5945 5942 5942 5941 5942 5943 5940 5938 5938 5938 5939 5937 5937 5936
5940 5934 5950 5944 5943 5942 5940 5942 5943 5943 5942 5941 5940 5939 5939 5938 5937 5936 5936 5936 5936 5935 5935 5934 5934 5935 5936 5937 5938 5940 5940 5938 5937 5942 5941 5944 5941 5943 5942 5943 5943 5941 5938 5937 5936 5936 5938 5938 5935
5944 5945 5950 5946 5945 5943 5945 5943 5945 5946 5945 5944 5943 5942 5941 5939 5938 5937 5937 5936 5936 5936 5935 5934 5934 5934 5935 5936 5938 5938 5938 5936 5937 5938 5941 5939 5941 5944 5943 5949 5943 5942 5934 5937 5935 5934 5936 5938 5938
5946 5951 5938 5946 5945 5943 5940 5943 5946 5951 5950 5947 5944 5942 5942 5940 5938 5937 5937 5937 5936 5936 5936 5935 5934 5934 5934 5935 5936 5936 5937 5937 5940 5939 5943 5942 5941 5943 5943 5945 5942 5942 5931 5936 5933 5933 5934 5936 5936
5952 5953 5949 5942 5947 5946 5946 5947 5943 5930 5948 5948 5946 5943 5942 5941 5940 5939 5938 5938 5937 5937 5937 5936 5935 5935 5934 5935 5935 5935 5936 5937 5939 5940 5940 5939 5941 5944 5945 5943 5941 5940 5937 5933 5931 5932 5933 5935 5935
5950 5951 5951 5952 5947 5947 5947 5949 5943 5940 5946 5947 5946 5944 5943 5941 5940 5939 5939 5938 5938 5938 5938 5937 5936 5935 5935 5936 5936 5937 5936 5936 5938 5938 5939 5941 5941 5943 5943 5942 5939 5937 5935 5931 5929 5930 5933 5934 5934
5944 5948 5945 5946 5946 5946 5948 5949 5941 5946 5947 5948 5943 5942 5942 5941 5939 5938 5937 5937 5938 5938 5938 5938 5937 5937 5937 5937 5938 5939 5938 5938 5938 5939 5940 5941 5942 5942 5942 5940 5939 5938 5935 5932 5930 5931 5932 5933 5933
5938 5941 5944 5943 5943 5943 5946 5948 5936 5938 5943 5933 5937 5939 5941 5941 5939 5939 5939 5938 5938 5938 5938 5938 5939 5939 5939 5939 5939 5940 5940 5939 5939 5939 5940 5942 5943 5927 5941 5940 5939 5938 5936 5935 5934 5933 5933 5933 5934
5932 5938 5941 5944 5943 5942 5946 5941 5933 5931 5934 5933 5930 5934 5940 5940 5939 5940 5939 5939 5939 5939 5939 5938 5939 5939 5939 5938 5938 5938 5938 5938 5939 5940 5941 5941 5942 5942 5943 5941 5940 5939 5937 5937 5937 5936 5935 5933 5934
5929 5935 5939 5941 5942 5945 5941 5938 5929 5929 5935 5932 5931 5932 5939 5939 5939 5940 5940 5940 5939 5939 5939 5938 5937 5937 5937 5937 5936 5936 5937 5937 5936 5937 5938 5938 5942 5939 5937 5937 5939 5939 5938 5937 5937 5936 5936 5935 5934
5926 5930 5935 5938 5939 5941 5939 5939 5935 5926 5930 5931 5934 5935 5938 5937 5939 5941 5941 5940 5940 5940 5940 5939 5939 5937 5936 5934 5935 5934 5934 5934 5935 5935 5936 5937 5939 5934 5936 5940 5940 5939 5938 5937 5936 5935 5934 5934 5934
5920 5929 5934 5933 5935 5936 5938 5932 5931 5929 5932 5935 5933 5934 5934 5936 5938 5938 5940 5941 5941 5942 5940 5940 5938 5937 5936 5934 5933 5932 5930 5930 5931 5932 5934 5935 5937 5939 5936 5939 5939 5938 5938 5937 5936 5935 5934 5933 5932
5918 5921 5925 5930 5935 5936 5938 5936 5931 5936 5937 5937 5933 5936 5933 5933 5935 5936 5937 5937 5937 5941 5939 5938 5936 5935 5935 5933 5930 5926 5922 5922 5925 5930 5931 5933 5935 5936 5937 5937 5937 5936 5936 5935 5935 5934 5932 5931 5929
5913 5919 5922 5927 5930 5932 5935 5935 5931 5928 5930 5933 5932 5935 5927 5932 5924 5932 5933 5935 5933 5937 5938 5936 5934 5934 5932 5931 5928 5924 5917 5914 5923 5928 5930 5932 5934 5935 5936 5935 5935 5934 5934 5933 5932 5931 5929 5927 5925